User: anonymous   Login
Location: Bushey
(51.6333°N, 0.3667°W)
Time: 14:47:37
(UTC+00:00)
Language:

Cosmos 1378 - Orbit

View from above orbital plane
View from above orbital plane
View from above satellite
View from above satellite

Ground track
Ground track

The orbit data is extracted from the following two-line orbital elements,

1 13271U 82059A   21129.21496520  .00000750  00000-0  29920-4 0  9990
2 13271  82.4669 225.8098 0006931  12.7320 347.4090 15.23605345126290
Epoch (UTC): 09 May 2021 05:09:32
Eccentricity: 0.0006931
inclination: 82.4669°
perigee height: 490 km
apogee height: 500 km
right ascension of ascending node: 225.8098°
argument of perigee: 12.7320°
revolutions per day: 15.23605345
mean anomaly at epoch: 347.4090°
orbit number at epoch: 12629

The dashed part of the orbit path shows where the satellite is in the earth's shadow,  

DLR